Location: La Silve
(44.2414°N, 5.8889°E)
Time: 08:27:29
(UTC+00:00)

CENTAUR R/B - Pass Details

Date: 13 April 2021
Orbit: 742 x 1446 km, 63.4° (Epoch: 18 April)

Event Time Altitude Azimuth Distance (km) Brightness Sun altitude
Rises 20:52:34 0° 315° (NW) 4,276 7.3 -24.8°
Reaches altitude 10° 20:55:42 10° 306° (NW) 3,387 6.3 -25.2°
Maximum altitude 21:02:42 30° 249° (WSW) 2,310 4.6 -26.1°
Enters shadow 21:08:28 15° 200° (SSW) 3,151 4.9 -26.8°
